Location: Bu�n Treun
(12.1333°N, 108.3167°E)
Time: 23:58:44
(UTC+00:00)

Cosmos 1825 Rocket - Pass Details

Date: 13 July 2020
Orbit: 604 x 631 km, 82.5° (Epoch: 03 August)

Event Time Altitude Azimuth Distance (km) Brightness Sun altitude
Exits shadow 12:32:46 10° 182° (S) 2,009 5.9 -17.9°
Reaches altitude 10° 12:32:49 10° 182° (S) 1,987 5.9 -17.9°
Maximum altitude 12:37:14 83° 94° (E) 633 3.4 -18.8°
Drops below altitude 10° 12:41:40 10° 6° (N) 2,000 6.4 -19.8°
Sets 12:43:54 0° 6° (N) 2,909 7.3 -20.3°
